Home   Weather   Visalia   Past weeks

Flag for USA Past Weather in Visalia, California, USA — Yesterday and Last 2 Weeks

Now
49 °F

Overcast.


Feels Like: 48 °F
Forecast: 40 / 54 °F
Wind: 3 mph from Northwest

Location: Visalia Municipal

Current Time: Dec 6, 2016 at 1:54:39 pm

Latest Report: Dec 6, 2016 at 12:56 pm


Visibility: 5 mi

Pressure: 30.09 "Hg

Humidity: 84%

Dew Point: 44 °F

Location of VisaliaLocation

Past Weather in Visalia — Graph

°F

Visalia Temperature Yesterday

Maximum temperature yesterday: 57 °F (at 2:56 pm)
Minimum temperature yesterday: 33 °F (at 3:56 am)
Average temperature yesterday: 44 °F

High & Low Weather Summary for the Past Weeks

 TemperatureHumidityPressure
High63 °F (Nov 21, 12:56 pm)100% (Nov 22, 3:04 am)30.39 "Hg (Nov 22, 3:04 am)
Low32 °F (Nov 25, 6:56 am)41% (Nov 23, 1:56 pm)29.88 "Hg (Nov 26, 11:56 am)
Average47 °F84%30.15 "Hg
* Reported Nov 21 11:56 am — Dec 6 11:56 am, Visalia, Weather by CustomWeather, © 2016

Note: Actual official high and low records may vary slightly from our data, if they occured in-between our weather recording intervals... More about our weather records

Advertising

Visalia Weather History for the Previous 24 Hours

Scroll right to see more
 ConditionsComfort  
Time TempWeatherWind HumidityBarometerVisibility
11:56 am
Tue, Dec 6
48 °FFog.5 mph89%30.11 "Hg4 mi
11:00 am46 °FFog.3 mph93%30.10 "Hg3 mi
10:03 am46 °FFog.6 mph100%30.11 "Hg2 mi
9:56 am46 °FFog.6 mph100%30.13 "Hg2 mi
9:04 am45 °FFog.5 mph100%30.09 "Hg1 mi
8:56 am45 °FFog.No wind100%30.11 "Hg1 mi
7:56 am42 °FFog.No wind100%30.10 "Hg0 mi
6:56 am42 °FFog.No wind100%30.08 "Hg0 mi
5:56 am42 °FFog.No wind96%30.07 "Hg0 mi
4:56 am42 °FFog.No wind100%30.06 "Hg0 mi
3:56 am42 °FFog.No wind96%30.06 "Hg0 mi
3:03 am43 °FFog.5 mph93%30.03 "Hg1 mi
1:56 am43 °FFog.No wind100%30.08 "Hg2 mi
12:56 am43 °FFog.7 mph97%30.09 "Hg0 mi
11:56 pm
Mon, Dec 5
42 °FFog.No wind100%30.08 "Hg0 mi
10:56 pm42 °FFog.5 mph100%30.07 "Hg0 mi
10:03 pm43 °FFog.No wind87%30.05 "Hg2 mi
8:56 pm45 °FFog.No wind93%30.07 "Hg4 mi
7:56 pm46 °FFog.3 mph89%30.07 "Hg6 mi
6:56 pm49 °FClear.3 mph86%30.07 "Hg9 mi
5:56 pm50 °FClear.6 mph83%30.06 "Hg10 mi
4:56 pm53 °FClear.6 mph77%30.06 "Hg8 mi
3:56 pm56 °FSunny.6 mph67%30.07 "Hg8 mi
2:56 pm57 °FSunny.No wind64%30.07 "Hg8 mi
1:56 pm56 °FSunny.6 mph67%30.08 "Hg7 mi
Weather by CustomWeather, © 2016

See weather overviewHow to use our weather pages